Погода в Фарафенни

Гамбия     13°34′20″N   15°35′56″W
темп.,
°C
ветер,
м/с
пор.,
м/с
влажн.,
%
обл.,
%
осадки,
мм/ч
давл.,
гПа
погр.,
м
14 августа, вс
вс1400:00+24ююз31086100 0.0 1014581
03:00+24ююз2989100 0.0 1012563
06:00+24ю249398 0.1 1013178
09:00+27юз478239 0.0 1014678
12:00+30зюз347047 2.6 10141055
15:00+30зюз336726 3.2 10111060
18:00+29зюз357799 6.0 1010569
21:00+25зюз3890100 4.5 1012232
15 августа, пн
пн1500:00+25зюз4990100 7.2 1012295
03:00+24зюз249497 0.0 1012133
06:00+24зсз2294100 0.0 101153
09:00+27сз358493 0.1 1012552
12:00+30ссз336578 0.1 10121265
15:00+29зсз2375100 0.8 1009252
18:00+28зюз367891 0.8 1008261
21:00+26з498680 0.0 1010318
16 августа, вт
вт1600:00+25з388925 0.0 1010342
03:00+24з389162 0.0 1009286
06:00+24з3791100 0.0 1009222
09:00+27з468228 0.0 1011540
12:00+31зюз346796 0.0 10111197
15:00+29юз347799 1.8 1009274
18:00+28юз4682100 6.4 1009232
21:00+26ю4889100 1.5 1011182
17 августа, ср
ср1700:00+24ю2694100 1.6 1011194
03:00+24зюз4994100 0.0 1009327
06:00+24ююз2796100 0.0 1009276
09:00+25ююз369389 0.0 1011259
12:00+30юз457161 0.1 10111136
15:00+30ююз556883 1.4 10091241
18:00+26ююз4786100 4.3 1010517
21:00+24ююз3793100 0.0 1011304
18 августа, чт
чт1800:00+23ю389589 0.0 1012346
03:00+23ююз299729 0.0 1010349
06:00+22ю269837 0.0 1010242
09:00+26ююз4785100 0.1 1012552
12:00+30ююз5665100 0.1 10121198
15:00+31юз5663100 0.1 10101474
18:00+27юз478374 5.4 1010565
21:00+25ююз3790100 0.8 1012214